Location: 22
(39.7117°N, 89.5929°W)
Time: 11:04:14
(UTC-06:00)

Transit 2A Rocket - Visible Passes

Search period start: 30 January 2023 00:00
Search period end: 09 February 2023 00:00
Orbit: 585 x 915 km, 66.7° (Epoch: 29 January)

Date Brightness Start Highest point End Pass type
(mag) Time Alt. Az. Time Alt. Az. Time Alt. Az.
03 Feb 7.7 06:24:45 10° NNE 06:27:22 13° NE 06:29:59 10° ENE visible
06 Feb 7.7 05:57:25 10° N 06:01:04 16° NE 06:04:46 10° ENE visible
07 Feb 7.9 05:15:55 10° NNE 05:17:24 11° NE 05:18:53 10° NE visible
08 Feb 7.0 06:12:51 10° N 06:18:10 31° NE 06:23:30 10° ESE visible
